Location: �clusier
(49.9361°N, 2.7869°E)
Time: 07:27:13
(UTC+00:00)

Cosmos 1674 - Pass Details

Date: 16 June 2021
Orbit: 494 x 514 km, 82.5° (Epoch: 02 August)

Event Time Altitude Azimuth Distance (km) Brightness Sun altitude
Exits shadow 21:57:06 - 213° (SSW) 2,299 5.7 -12.5°
Reaches altitude 10° 21:58:40 10° 221° (SW) 1,698 5.1 -12.7°
Maximum altitude 22:02:03 33° 287° (WNW) 856 4.2 -12.9°
Drops below altitude 10° 22:05:28 10° 353° (N) 1,706 6.6 -13.1°
Sets 22:07:44 0° 3° (N) 2,593 7.5 -13.3°
